sat.trackr.live / text

‹ back to catalog

STARLINK-30994

NORAD 58483 · 2023-186L

PAYLOAD ACTIVE UNKNOWN

§ Identity

Operator
Country
US
Launch date
2023-12-03
Launch site
AFETR
Launch vehicle
Mass (kg)
RCS (m²)

Purposes: comms

External: N2YO · Heavens-Above · Gunter

§ Orbital elements

Epoch: 2026-05-25T03:50:33.069408Z

Period
94.11 min
Inclination
42.9988°
Eccentricity
0.0002626
Mean motion
15.30133684 rev/d
Perigee alt
473.6 km
Apogee alt
477.2 km
Semi-major
6,853.6 km
B*
1.1354e-3
RAAN
187.9210°
Arg perigee
5.8071°
Mean anomaly
354.2812°
Rev number
13,950

§ Raw data

STARLINK-309941 58483U 23186L   26145.16010497  .00033680  00000+0  11354-2 0  99992 58483  42.9988 187.9210 0002626   5.8071 354.2812 15.30133684139502

JSON: /api/v1/satellites/58483 · /tle

For live sub-satellite position, see the globe view (requires WebGL).

§ Visibility from observer

Set your observer location to see the next 7 days of passes ≥ 10°. The values pass through the URL so the page stays shareable.

No JS? Fill the form by hand. The geolocation button needs JavaScript.